Regional Weather Roundup
Issued by NWS

Home | Current Version | Previous Version | Graphics & Text | Print | Product List | Glossary On
Versions: 1 2 3 4 5 6 7 8 9 10 11 12 13 14 15 16 17 18 19 20 21 22 23 24 25 26 27 28 29 30 31 32 33 34 35 36 37 38 39 40 41 42 43 44 45 46 47 48 49 50
409
ASUS45 KTFX 270010
RWRMT
MONTANA REGIONAL WEATHER ROUNDUP
NATIONAL WEATHER SERVICE GREAT FALLS MT
600 PM MDT FRI MAY 26 2017

NOTE: "FAIR" INDICATES FEW OR NO CLOUDS BELOW 12000 FEET WITH NO
SIGNIFICANT WEATHER AND/OR OBSTRUCTIONS TO VISIBILITY.

MTZ001>007-043-270100-
WEST OF THE DIVIDE

CITY           SKY/WX    TMP DP  RH WIND       PRES   REMARKS
KALISPELL      PTSUNNY   70  36  28 VRB6      29.90R
MISSOULA       MOSUNNY   67  39  35 W9        29.93S
BUTTE          SUNNY     58  26  29 N7        29.96R
MULLAN PASS    MOSUNNY   55  32  41 N5        30.03R
ANACONDA         N/A     55  30  38 W3        29.97R
DEER LODGE       N/A     61  30  31 NW8       29.98R
EUREKA           N/A     70  34  26 CALM      29.91R
HAMILTON         N/A     66  30  26 N9        29.93S
PLAINS           N/A     72  36  26 S1        29.91S
RONAN            N/A     68  37  31 W3        29.98S
$$

MTZ008-052>055-270100-
SOUTHWEST MONTANA

CITY           SKY/WX    TMP DP  RH WIND       PRES   REMARKS
BOZEMAN        PTSUNNY   63  38  39 N8        29.93R
DILLON         CLOUDY    62  28  27 N13       29.93R
ENNIS          MOSUNNY   59  28  31 N12G18    29.99R
$$

MTZ009-010-012-014-046-048-049-054-270100-
EAST SLOPES AND CENTRAL MONTANA

CITY           SKY/WX    TMP DP  RH WIND       PRES   REMARKS
CUT BANK       PTSUNNY   64  29  26 NW13G21   29.91R
GREAT FALLS    CLOUDY    61  33  35 SE5       29.91R
MALMSTROM AFB  MOSUNNY   61  33  33 W9        29.91S
HELENA         SUNNY     64  30  27 N9        29.94R
CHOTEAU          N/A     64  34  32 N9        29.94R
CONRAD           N/A     64  39  39 W12       29.95R
$$

MTZ011-013-016-021-045-047-050-051-270100-
NORTH CENTRAL MONTANA

CITY           SKY/WX    TMP DP  RH WIND       PRES   REMARKS
HAVRE          CLOUDY    64  36  35 W5        29.87S
LEWISTOWN      MOSUNNY   59  31  34 NW9       29.93R
N BAR RANCH      N/A     59  30  33 NW9G17    29.96R
CHINOOK          N/A     66  39  37 S7        29.87S
$$

MTZ017>020-022>027-061-062-270100-
NORTHEAST MONTANA

CITY           SKY/WX    TMP DP  RH WIND       PRES   REMARKS
GLASGOW        LGT RAIN  57  41  55 NW26      29.86R
JORDAN           N/A     67  30  25 W15       29.87R
SIDNEY         MOSUNNY   67  34  29 NW10      29.80R
WOLF POINT     MOSUNNY   69  32  25 NW15G22   29.81R
MALTA          PTSUNNY   59  37  44 W9G21     29.88S
PLENTYWOOD       N/A     61  36  39 W24       29.78R
POPLAR           N/A     66  34  30 NW18G26   29.81R
SCOBEY           N/A     60  33  36 NW25      29.83R
$$

MTZ028>42-056>058-270100-
SOUTHCENTRAL AND SOUTHEAST MONTANA

CITY           SKY/WX    TMP DP  RH WIND       PRES   REMARKS
BAKER          MOSUNNY   64  33  31 NW8       29.87S
BILLINGS       MOSUNNY   63  31  30 CALM      29.92S
LIVINGSTON     MOSUNNY   60  33  36 E8        29.93R
MILES CITY     CLOUDY    66  30  26 N5        29.86S
BIG TIMBER     CLOUDY    59  30  33 CALM      29.96S
EKALAKA          N/A     59  34  39 W5        29.89R
FORSYTH          N/A     64  30  27 W7        29.88R
LAUREL           N/A     61  32  33 E3        29.93S
ROUNDUP          N/A     64  30  28 S5        29.84S
$$

REGIONAL REPORTS...DAKOTAS

CITY           SKY/WX    TMP DP  RH WIND       PRES   REMARKS
WILLISTON      SUNNY     69  32  25 W17G25    29.78R
MINOT          MOSUNNY   68  36  30 W17       29.73S
DICKINSON      SUNNY     65  30  27 W16       29.81R
BEACH          PTSUNNY   66  32  28 NW14      29.87S
CROSBY           N/A     64  32  29 NW16G25   29.75R
TIOGA          PTSUNNY   66  30  26 NW21      29.77S
WATFORD CITY     N/A     66  34  30 NW13G22   29.78S
BISMARCK       PTSUNNY   69  38  32 NW10      29.80S
GRAND FORKS    MOSUNNY   69  47  45 W14       29.71R
FARGO          SUNNY     69  43  38 W15       29.75R
BUFFALO SD       N/A     64  36  35 NW14      29.82R
RAPID CITY     CLOUDY    60  38  43 S8        29.93R
$$

REGIONAL REPORTS...WYOMING/IDAHO/WASHINGTON

CITY           SKY/WX    TMP DP  RH WIND       PRES   REMARKS
GILLETTE       CLOUDY    54  39  57 S6        29.95R
SHERIDAN       LGT RAIN  50  45  83 W8        29.98R
BUFFALO WY     LGT RAIN  48  40  73 NW5       29.99R
CODY           CLOUDY    46  38  73 W7        30.01R
YELLOWSTONE LA   N/A     38  34  85 VRB3      30.04R
IDAHO FALLS    CLOUDY    46  40  79 SE3       30.01R
SALMON         CLOUDY    64  34  32 NW6       29.90R
BOISE          MOSUNNY   72  37  28 W15G24    29.91R
SPOKANE        MOSUNNY   72  32  23 W9        29.94S
$$

REGIONAL REPORTS...ALBERTA

CITY           SKY/WX    TMP DP  RH WIND       PRES   REMARKS
EDMONTON       MOSUNNY   72  43  35 N8        29.74R
CALGARY        PTSUNNY   66  32  28 N13       29.86S
MEDICINE HAT   PTSUNNY   63  41  45 W7        29.82F
CARDSTON         N/A     66  34  30 W8          N/A
MILK RIVER       N/A     66  34  30 NW10        N/A
ONEFOUR          N/A     63  39  42 N13         N/A
$$

REGIONAL REPORTS...SASKATCHEWAN

CITY           SKY/WX    TMP DP  RH WIND       PRES   REMARKS
SWIFT CURRENT  PTSUNNY   59  37  44 W10       29.79R
REGINA         PTSUNNY   66  32  28 NW23G31   29.68S
SASKATOON      MOSUNNY   66  34  30 N20G29    29.68R
CYPRESS HILLS    N/A     55  39  54 SW14G22     N/A
VAL MARIE        N/A     64  34  32 W15         N/A
ROCKGLEN         N/A     55  39  54 W8          N/A
$$




USA.gov is the U.S. government's official web portal to all federal, state and local government web resources and services.